Flag for Germany Weather past 2 weeks in Stassfurt, Saxony-Anhalt, Germany

Now
46 °F

Light rain. Overcast.


Feels Like: 45 °F
Forecast: 40 / 50 °F
Wind: 3 mph from North

Location: Magdeburg

Current Time: Apr 27, 2015 at 11:42:58 PM

Latest Report: Apr 27, 2015 at 10:00 PM


Visibility: 5 mi

Pressure: 29.77 "Hg

Humidity: 88%

Dew point: 43 °F

Location of StassfurtLocation

Historic Weather in Stassfurt — Graph

°F

Stassfurt temperature yesterday

Maximum temperature yesterday: 66 °F (at 2:00 PM)
Minimum temperature yesterday: 47 °F (at 6:00 AM)
Average temperature yesterday: 57 °F

Past Weeks' High & Low Weather Summary

 TemperatureHumidityPressure
High74 °F (Apr 15, 4:00 PM)97% (Apr 26, 6:00 AM)30.42 "Hg (Apr 26, 6:00 AM)
Low32 °F (Apr 18, 7:00 AM)23% (Apr 21, 2:00 PM)29.59 "Hg (Apr 27, 7:00 AM)
Average52 °F64%30.08 "Hg
* Reported Apr 12 10:00 PM — Apr 27 10:00 PM, Stassfurt, Weather by CustomWeather, © 2015

Note: Actual official high and low records may vary slightly from our data, if they occured in-between our weather recording intervals... More about our weather records

Advertising

Stassfurt weather history for previous 24 hours

 ConditionsComfort  
Time TempWeatherWind HumidityBarometerVisibility
10:00 PM
Mon, Apr 27
46 °FLight rain. Overcast.3 mph88%29.77 "Hg5 mi
9:00 PM47 °FLight rain. Overcast.5 mph82%29.76 "Hg12 mi
8:00 PM48 °FOvercast.5 mph78%29.74 "Hg28 mi
7:00 PM49 °FOvercast.5 mph81%29.72 "Hg28 mi
6:00 PM48 °FDrizzle. Overcast.5 mph85%29.73 "Hg22 mi
4:00 PM49 °FLow clouds.5 mph87%29.72 "Hg16 mi
3:00 PM49 °FDrizzle. Low clouds.5 mph93%29.71 "Hg6 mi
2:00 PM50 °FLow clouds.5 mph92%29.69 "Hg9 mi
1:00 PM50 °FDrizzle. Low clouds.3 mph95%29.67 "Hg4 mi
12:00 PM50 °FDrizzle. Low clouds.3 mph95%29.66 "Hg3 mi
10:00 AM51 °FLight rain. Low clouds.2 mph95%29.61 "Hg7 mi
9:00 AM51 °FLow clouds.3 mph97%29.60 "Hg10 mi
8:00 AM51 °FLow clouds.2 mph97%29.60 "Hg6 mi
7:00 AM51 °FLight rain. Low clouds.3 mph97%29.59 "Hg2 mi
6:00 AM51 °FLight rain. Low clouds.2 mph97%29.61 "Hg2 mi
4:00 AM51 °FOvercast.2 mph92%29.63 "Hg6 mi
3:00 AM51 °FOvercast.2 mph88%29.65 "Hg17 mi
2:00 AM53 °FOvercast.1 mph85%29.66 "Hg14 mi
1:00 AM53 °FOvercast.1 mph89%29.67 "Hg12 mi
12:00 AM53 °FOvercast.1 mph86%29.68 "Hg13 mi
Weather by CustomWeather, © 2015

See weather overviewHow to use our weather pages